294  
ASUS41 KBOX 221010  
RWRBOX  
 
REGIONAL WEATHER ROUNDUP  
NATIONAL WEATHER SERVICE BOSTON/NORTON MA  
600 AM EDT SUN APR 22 2018  
 
NOTE: "FAIR" INDICATES FEW OR NO CLOUDS BELOW 12,000 FEET WITH NO  
SIGNIFICANT WEATHER AND/OR S TO VISIBILITY
.  
 
MAZALL-221100-  
EASTERN MASSACHUSETTS  
 
CITY SKY/WX TMP DP RH WIND PRES REMARKS
 
BOSTON FAIR 43 21 41 W10 30.33R  
BEVERLY FAIR 35 21 56 CALM 30.32R  
LAWRENCE FAIR 37 23 56 CALM 30.34R  
BEDFORD FAIR 30 25 81 W3 30.32R  
BLUE HILL N/A 36 21 54 NW12 30.30R WCI 28  
NORWOOD FAIR 34 30 85 CALM 30.34R  
MARSHFIELD FAIR 34 27 75 W7 30.32R WCI 28  
PLYMOUTH FAIR 31 27 85 MISG 30.33R  
TAUNTON FAIR 28 26 92 CALM 30.33R  
NEW BEDFORD FAIR 30 28 92 CALM 30.33R  

 
 
MAZALL-221100-  
CAPE COD AND THE ISLANDS  
 
CITY SKY/WX TMP DP RH WIND PRES REMARKS
 
FALMOUTH N/A 30 25 80 W3 30.33  
HYANNIS FAIR 34 30 85 CALM 30.30R  
CHATHAM FAIR 38 35 89 NW5 30.32R  
PROVINCETOWN FAIR 41 34 76 W6 30.32R  
NANTUCKET FAIR 38 36 92 NW7 30.31R  
MARTHAS VNYRD FAIR 26 25 96 NW6 30.32R WCI 19  

 
 
MAZALL-221100-  
CENTRAL AND WESTERN MASSACHUSETTS  
 
CITY SKY/WX TMP DP RH WIND PRES REMARKS
 
WORCESTER FAIR 35 17 47 W10 30.32R WCI 27  
FITCHBURG FAIR 34 25 69 CALM 30.34R  
ORANGE FAIR 24 22 91 CALM 30.36R  
SPRINGFIELD FAIR 24 21 89 CALM 30.35R  
WESTFIELD FAIR 28 23 81 CALM 30.36R  
NORTH ADAMS FAIR 24 21 88 CALM 30.38R  
PITTSFIELD FAIR 28 22 78 CALM 30.34R  

 
 
RIZALL-221100-  
RHODE ISLAND  
 
CITY SKY/WX TMP DP RH WIND PRES REMARKS
 
PROVIDENCE FAIR 37 25 61 W5 30.34S  
NEWPORT FAIR 35 27 72 CALM 30.33R  
BLOCK ISLAND FAIR 41 28 60 NW6 30.35R  
SMITHFIELD FAIR 32 20 61 MISG 30.33R  
WESTERLY FAIR 32 26 78 CALM 30.35S  

 
 
CTZALL-221100-  
CONNECTICUT  
 
CITY SKY/WX TMP DP RH WIND PRES REMARKS
 
BRADLEY INTL FAIR 35 22 58 CALM 30.36R  
HARTFORD FAIR 34 29 82 CALM 30.37R  
BRIDGEPORT FAIR 42 19 39 NW6 30.37S  
DANBURY FAIR 29 24 82 CALM 30.38R  
GROTON FAIR 34 25 69 CALM 30.35R  
NEW HAVEN FAIR 35 23 61 N5 30.37R WCI 31  
CHESTER FAIR 39 19 45 NW3 30.35S  
MERIDEN FAIR 33 25 72 CALM 30.37R  
WILLIMANTIC FAIR 30 25 81 CALM 30.36R  
OXFORD FAIR 35 19 52 N5 30.36R WCI 31  

 
 
MEZ002-015-021-024-NHZ003-005-008-011-012-014-VTZ005-008-221100-  
NORTHERN NEW ENGLAND  
 
CITY SKY/WX TMP DP RH WIND PRES REMARKS
 
PORTLAND ME FAIR 33 24 69 W8 30.30R WCI 26  
BANGOR ME FAIR 27 22 81 CALM 30.25R  
CONCORD NH FAIR 26 21 81 NE3 30.33R  
MANCHESTER NH FAIR 34 23 64 CALM 30.32R  
NASHUA NH FAIR 29 24 82 CALM 30.34R  
PORTSMOUTH NH CLEAR 35 21 55 CALM 30.29S  
JAFFREY NH FAIR 27 24 89 S3 30.32R  
KEENE NH FAIR 23 21 92 CALM 30.36R  
BURLINGTON VT FAIR 29 23 78 CALM 30.37R  
MT. WASHINGTON PTCLDY 14 10 85 NW53 N/A WCI -12  

 
 
NYZ052-076-221100-  
EASTERN NEW YORK  
 
CITY SKY/WX TMP DP RH WIND PRES REMARKS
 
ALBANY FAIR 31 20 63 CALM 30.38R  
NEW YORK CITY FAIR 47 28 47 NW3 30.38R  

 
 
ANZALL-221100-  
MARINE OBSERVATIONS  
 
STATION/POSITION TIME TEMP WIND PRES VSBY WAVE
 
AIR SEA DIR/SP/G HT/PER  
(UTC) (F) (DEG/KT/KT) (MB) (MI) (FT/S)  
BOSTON BUOY 0950 43 43 270/ 10/ 12 1025.4R 1  
BUZZARDS BAY 0900 44 320/ 9/ 9 1027.4R  
NANTUCKET SOUND 0850 43 43 340/ 8/ 10 1025.8 1  
MASS BAY-STELLWA 0904 42 42 1024.6F 1  
ISLE OF SHOALS 1000 40 300/ 12/ 14 1025.7R  
S OF BLOCK IS 0943 42 N/A 2/ 5  

 
   
.....................KEY......................
 
 
SKY/WX - SKY CONDITION/PRESENT WEATHER  
TMP - TEMPERATURE IN FAHRENHEIT  
DWPT - DEWPOINT IN FAHRENHEIT  
RH - RELATIVE HUMIDITY IN PERCENT  
WIND - DIRECTION AND SPEED IN MPH  
PRES - MEAN SEA LEVEL PRESSURE IN INCHES OF HG  
WCI - WIND CHILL INDEX  
VSB - VISIBILITY IN MILES  
HX - HEAT INDEX  
TC - TEMPERATURE IN CELSIUS  
VRB - VARIABLE WIND DIRECTION  
N/A - NOT AVAILABLE  
 
 
CLICK HERE TO GO TO PREVIOUS BULLETINS.

The Nexlab MA Page
The Nexlab RI Page
The Nexlab NH Page
The Nexlab CT Page Main Text Page